Weather History for KJWG - September, 2013

Change the Weather History Date:

Thursday, September 26, 2013

  Actual Average Record
Temperature  
Mean Temperature 80 °F -  
Max Temperature 93 °F 79 °F 99 °F (1977)
Min Temperature 68 °F 56 °F 39 °F (1975)
Cooling Degree Days 16    
Growing Degree Days 30 (Base 50)    
Moisture  
Dew Point 57 °F    
Average Humidity 47    
Maximum Humidity 62    
Minimum Humidity 32    
Precipitation  
Precipitation 0.00 in - - ()
Sea Level Pressure  
Sea Level Pressure 29.80 in    
Wind  
Wind Speed 0 mph (North)    
Max Wind Speed 0 mph    
Max Gust Speed -    
Visibility 10 miles    
Events      
Averages and records for this station are not official NWS values.
T = Trace of Precipitation, MM = Missing Value Source: NWS Daily Summary

Daily Weather History Graph

Daily Weather History Graph

Search for Another Location

Airport or City:

Trip Planner

Search our weather history database for the weather conditions in past years. The results will help you decide how hot, cold, wet, or windy it might be!

Date:

Astronomy

Sep. 26, 2013 Rise Set
Actual Time 7:24 AM CDT 7:24 PM CDT
Civil Twilight 6:59 AM CDT 7:49 PM CDT
Nautical Twilight 6:29 AM CDT 8:19 PM CDT
Astronomical Twilight 5:59 AM CDT 8:49 PM CDT
Moon No Moon Rise 2:08 PM CDT (9/26)
Length of Visible Light 12h 50m
Length of Day
11h 59m
Waning Gibbous, 54% of the Moon is Illuminated
Sep 26
Waning Gibbous
Sep 26
Last Quarter
Oct 4
New
Oct 11
First Quarter
Oct 18
Full

Hourly Weather History & Observations

Time (CDT) Temp. Heat Index Dew Point Humidity Pressure Visibility Wind Dir Wind Speed Gust Speed Precip Events Conditions
12:15 AM 71.2 °F - 52.9 °F 52% 29.78 in 10.0 mi Calm Calm - N/A   Clear
12:35 AM 70.7 °F - 52.7 °F 53% 29.76 in 10.0 mi Calm Calm - N/A   Clear
12:55 AM 71.4 °F - 52.7 °F 52% 29.76 in 10.0 mi Calm Calm - N/A   Clear
1:15 AM 71.8 °F - 52.7 °F 51% 29.76 in 10.0 mi Calm Calm - N/A   Clear
1:35 AM 72.1 °F - 52.3 °F 50% 29.76 in 10.0 mi Calm Calm - N/A   Clear
1:55 AM 72.5 °F - 52.0 °F 48% 29.76 in 10.0 mi Calm Calm - N/A   Clear
2:15 AM 73.4 °F - 51.4 °F 46% 29.77 in 10.0 mi Calm Calm - N/A   Clear
2:35 AM 73.8 °F - 51.1 °F 45% 29.77 in 10.0 mi Calm Calm - N/A   Clear
2:55 AM 72.9 °F - 51.3 °F 47% 29.77 in 10.0 mi Calm Calm - N/A   Clear
3:15 AM 72.1 °F - 51.4 °F 48% 29.77 in 10.0 mi Calm Calm - N/A   Clear
3:35 AM 71.4 °F - 51.4 °F 49% 29.77 in 10.0 mi Calm Calm - N/A   Clear
3:55 AM 70.7 °F - 51.6 °F 51% 29.77 in 10.0 mi Calm Calm - N/A   Clear
4:15 AM 70.7 °F - 51.8 °F 51% 29.77 in 10.0 mi Calm Calm - N/A   Clear
4:35 AM 70.2 °F - 52.2 °F 53% 29.77 in 10.0 mi Calm Calm - N/A   Clear
4:55 AM 70.0 °F - 52.7 °F 54% 29.77 in 10.0 mi Calm Calm - N/A   Clear
5:15 AM 70.3 °F - 53.1 °F 54% 29.77 in 10.0 mi Calm Calm - N/A   Clear
5:35 AM 70.0 °F - 53.6 °F 56% 29.77 in 10.0 mi Calm Calm - N/A   Clear
5:55 AM 69.6 °F - 54.0 °F 57% 29.77 in 10.0 mi Calm Calm - N/A   Clear
6:15 AM 69.4 °F - 54.1 °F 58% 29.77 in 10.0 mi Calm Calm - N/A   Clear
6:35 AM 68.9 °F - 54.5 °F 60% 29.78 in 10.0 mi Calm Calm - N/A   Clear
6:55 AM 68.0 °F - 54.3 °F 62% 29.79 in 10.0 mi Calm Calm - N/A   Clear
7:15 AM 68.2 °F - 54.5 °F 62% 29.80 in 10.0 mi Calm Calm - N/A   Clear
7:35 AM 68.2 °F - 54.5 °F 62% 29.80 in 10.0 mi Calm Calm - N/A   Clear
7:55 AM 68.0 °F - 54.7 °F 62% 29.80 in 10.0 mi Calm Calm - N/A   Clear
8:15 AM 68.5 °F - 55.0 °F 62% 29.81 in 10.0 mi Calm Calm - N/A   Clear
8:35 AM 69.8 °F - 55.8 °F 61% 29.81 in 10.0 mi Calm Calm - N/A   Clear
8:55 AM 70.9 °F - 56.5 °F 60% 29.82 in 10.0 mi Calm Calm - N/A   Clear
9:15 AM 72.9 °F - 57.9 °F 59% 29.82 in 10.0 mi Calm Calm - N/A   Clear
9:35 AM 76.1 °F - 59.4 °F 56% 29.82 in 10.0 mi Calm Calm - N/A   Clear
9:55 AM 78.3 °F - 59.9 °F 53% 29.82 in 10.0 mi Calm Calm - N/A   Clear
10:15 AM 80.2 °F 81.1 °F 60.4 °F 51% 29.82 in 10.0 mi Calm Calm - N/A   Clear
10:35 AM 81.3 °F 81.9 °F 60.6 °F 49% 29.82 in 10.0 mi Calm Calm - N/A   Clear
10:55 AM 82.9 °F 83.3 °F 60.8 °F 47% 29.82 in 10.0 mi Calm Calm - N/A   Clear
11:15 AM 84.0 °F 84.5 °F 61.5 °F 47% 29.82 in 10.0 mi Calm Calm - N/A   Clear
11:35 AM 85.8 °F 86.1 °F 61.7 °F 44% 29.82 in 10.0 mi Calm Calm - N/A   Clear
11:55 AM 87.1 °F 87.2 °F 61.5 °F 42% 29.82 in 10.0 mi Calm Calm - N/A   Clear
12:15 PM 88.2 °F 88.1 °F 61.0 °F 40% 29.81 in 10.0 mi Calm Calm - N/A   Clear
12:35 PM 89.2 °F 89.6 °F 61.7 °F 40% 29.81 in 10.0 mi Calm Calm - N/A   Clear
12:55 PM 90.5 °F 90.7 °F 61.7 °F 38% 29.80 in 10.0 mi Calm Calm - N/A   Clear
1:15 PM 90.9 °F 90.9 °F 61.2 °F 37% 29.80 in 10.0 mi Calm Calm - N/A   Clear
1:35 PM 91.4 °F 91.4 °F 61.0 °F 36% 29.80 in 10.0 mi Calm Calm - N/A   Clear
1:55 PM 92.3 °F 91.6 °F 59.4 °F 33% 29.79 in 10.0 mi Calm Calm - N/A   Clear
2:15 PM 92.8 °F 92.1 °F 59.4 °F 32% 29.79 in 10.0 mi Calm Calm - N/A   Clear
2:35 PM 92.7 °F 92.1 °F 59.9 °F 33% 29.78 in 10.0 mi Calm Calm - N/A   Clear
2:55 PM 93.2 °F 92.6 °F 59.4 °F 32% 29.78 in 10.0 mi Calm Calm - N/A   Clear
3:15 PM 92.7 °F 92.5 °F 60.3 °F 34% 29.78 in 10.0 mi Calm Calm - N/A   Clear
3:35 PM 93.0 °F 92.7 °F 59.9 °F 33% 29.78 in 10.0 mi Calm Calm - N/A   Clear
3:55 PM 92.7 °F 92.1 °F 59.5 °F 33% 29.77 in 10.0 mi Calm Calm - N/A   Clear
4:15 PM 93.2 °F 92.9 °F 59.9 °F 33% 29.77 in 10.0 mi Calm Calm - N/A   Clear
4:35 PM 92.7 °F 92.1 °F 59.4 °F 33% 29.77 in 10.0 mi Calm Calm - N/A   Clear
4:55 PM 92.3 °F 91.6 °F 59.5 °F 33% 29.77 in 10.0 mi Calm Calm - N/A   Clear
5:15 PM 92.1 °F 91.7 °F 60.3 °F 34% 29.77 in 10.0 mi Calm Calm - N/A   Clear
5:35 PM 91.0 °F 90.5 °F 59.9 °F 35% 29.78 in 10.0 mi Calm Calm - N/A   Clear
5:55 PM 90.5 °F 89.8 °F 59.7 °F 35% 29.78 in 10.0 mi Calm Calm - N/A   Clear
6:15 PM 90.1 °F 89.6 °F 59.9 °F 36% 29.78 in 10.0 mi Calm Calm - N/A   Clear
6:35 PM 89.1 °F 88.5 °F 59.4 °F 37% 29.79 in 10.0 mi Calm Calm - N/A   Clear
6:55 PM 88.0 °F 87.4 °F 59.4 °F 38% 29.79 in 10.0 mi Calm Calm - N/A   Clear
7:15 PM 86.9 °F 86.3 °F 59.4 °F 39% 29.80 in 10.0 mi Calm Calm - N/A   Clear
7:35 PM 85.6 °F 85.2 °F 59.4 °F 41% 29.80 in 10.0 mi Calm Calm - N/A   Clear
7:55 PM 84.4 °F 84.0 °F 58.8 °F 42% 29.80 in 10.0 mi Calm Calm - N/A   Clear
8:15 PM 82.8 °F 82.7 °F 58.6 °F 44% 29.80 in 10.0 mi Calm Calm - N/A   Clear
8:35 PM 81.1 °F 81.4 °F 58.8 °F 46% 29.81 in 10.0 mi Calm Calm - N/A   Clear
8:55 PM 80.1 °F 80.7 °F 59.0 °F 48% 29.82 in 10.0 mi Calm Calm - N/A   Clear
9:15 PM 79.7 °F - 59.2 °F 49% 29.83 in 10.0 mi Calm Calm - N/A   Clear
9:35 PM 79.9 °F - 59.4 °F 49% 29.83 in 10.0 mi Calm Calm - N/A   Clear
9:55 PM 79.7 °F - 59.4 °F 50% 29.84 in 10.0 mi Calm Calm - N/A   Clear
10:15 PM 79.7 °F - 59.2 °F 49% 29.84 in 10.0 mi Calm Calm - N/A   Clear
10:35 PM 79.2 °F - 59.2 °F 50% 29.84 in 10.0 mi Calm Calm - N/A   Clear
10:55 PM 78.1 °F - 59.0 °F 52% 29.84 in 10.0 mi Calm Calm - N/A   Clear
11:15 PM 78.4 °F - 58.3 °F 50% 29.84 in 10.0 mi Calm Calm - N/A   Clear
11:35 PM 78.3 °F - 57.4 °F 49% 29.85 in 10.0 mi Calm Calm - N/A   Clear
11:55 PM 77.7 °F - 57.0 °F 49% 29.86 in 10.0 mi Calm Calm - N/A   Clear